Wind_Speed
13 11 9 8 7 7 6 6 6 5 3 3 3 2 2 2 3 4 2 8 7 4 4 3 7 10 10 12 16 21 5 9 8 16 19 21 16 14 14 10 8 16 23 24 21
13 12 11 9 8 7 7 6 6 5 3 2 3 3 3 2 5 8 13 10 9 7 6 6 6 6 7 7 13 9 5 14 17 0 18 18 19 20 16 16 22 24 22 21 20
13 13 13 11 9 7 7 6 6 4 3 2 3 4 4 4 2 7 12 8 7 8 5 11 6 12 18 9 17 8 8 18 14 14 17 15 15 23 21 16 17 21 21 20 18
13 13 13 12 10 8 7 6 5 3 2 2 3 5 6 4 2 4 10 9 9 13 8 9 6 13 6 12 18 6 22 6 16 12 20 17 22 16 19 19 19 19 19 18 16
15 15 14 14 11 8 7 6 4 2 2 2 4 5 5 7 5 6 10 11 10 8 6 10 13 5 6 14 7 9 9 11 11 18 12 21 18 17 20 20 20 19 18 17 16
15 17 16 14 10 8 7 4 2 1 2 3 5 7 6 9 3 4 10 10 8 8 8 8 13 11 7 11 6 9 2 17 6 14 10 19 16 18 19 21 20 18 16 18 14
16 18 17 14 11 8 4 2 0 1 2 4 6 7 6 4 4 8 11 8 6 9 8 7 10 15 19 12 4 19 9 8 6 11 10 22 11 12 19 20 20 18 14 16 14
18 18 17 14 9 4 3 3 2 1 2 4 7 8 5 5 7 10 11 10 9 10 9 9 9 15 17 8 15 6 7 7 16 22 12 18 11 14 17 19 18 18 16 14 15
17 19 18 13 6 4 3 4 3 2 3 7 7 5 7 6 10 12 13 12 10 10 11 11 9 16 17 6 7 6 3 7 16 17 21 12 9 17 19 17 17 15 16 15 15
18 18 17 13 5 3 4 4 5 6 6 10 4 7 11 10 11 12 13 12 11 10 12 13 13 13 11 9 8 3 1 12 11 14 17 8 15 15 22 20 17 16 15 16 17
21 19 17 11 3 1 1 4 2 3 13 10 6 9 4 9 11 12 13 12 12 13 12 14 11 11 12 14 14 15 17 18 9 17 6 15 8 15 16 20 20 20 17 16 17
21 20 16 10 1 1 1 4 6 7 7 20 8 8 6 9 11 12 14 14 16 14 15 14 11 16 10 6 13 15 20 3 15 15 16 16 21 23 15 18 19 23 21 19 18
21 19 16 9 1 3 4 9 6 6 8 16 16 14 11 12 13 16 17 20 14 15 16 16 13 13 2 5 9 9 12 14 2 5 8 19 20 15 15 15 20 19 23 21 20
21 19 16 7 2 4 7 5 6 5 5 13 14 14 16 13 15 16 19 18 8 15 17 15 18 3 4 10 10 14 11 7 5 9 5 5 5 17 12 23 17 21 25 21 22
22 19 15 9 5 3 3 5 4 3 5 12 15 11 15 14 6 13 18 20 16 14 14 15 13 14 10 12 12 13 13 9 9 11 14 12 9 17 23 22 21 19 29 25 24
21 19 14 7 6 5 7 6 3 6 6 11 12 11 16 20 8 14 17 20 14 16 14 18 14 13 16 11 13 12 11 11 12 12 11 14 7 4 7 4 8 12 14 29 28
20 19 14 7 2 5 5 6 6 7 8 12 14 12 17 16 15 12 15 17 14 12 16 17 19 10 10 12 14 14 11 9 8 10 11 16 11 8 16 19 21 20 16 16 31
20 15 13 9 9 7 4 7 9 13 15 9 11 13 17 17 17 14 13 16 19 19 13 12 14 20 17 18 14 14 16 11 11 12 11 11 3 7 16 16 17 14 10 4 9
21 10 9 5 3 7 10 10 8 13 9 2 10 12 16 17 14 17 18 17 18 19 18 13 17 10 20 15 16 16 13 18 19 20 12 7 10 6 14 11 18 16 18 9 6
23 14 12 12 4 6 9 17 18 18 13 11 12 9 15 17 18 16 17 14 20 19 20 19 14 17 14 16 18 17 13 12 10 15 15 15 13 14 17 19 13 16 15 10 6
15 9 7 5 4 11 11 15 18 20 16 8 15 18 17 16 16 18 18 17 12 17 17 17 15 13 12 12 16 12 16 16 15 11 12 12 10 10 20 17 15 14 14 12 9
7 6 7 5 10 12 13 20 24 24 19 8 13 18 20 20 17 20 21 19 9 14 17 17 10 15 17 11 13 17 17 18 12 14 14 12 4 11 16 20 19 20 12 10 11
10 18 16 7 8 11 19 22 24 18 12 14 18 15 18 18 20 19 20 18 23 15 12 14 10 15 17 15 16 16 19 18 18 16 17 12 10 12 12 13 20 21 18 12 11
8 5 9 15 13 14 17 17 19 20 15 14 20 18 17 17 17 20 21 19 19 19 9 8 16 14 15 17 15 19 16 18 17 13 15 17 9 12 12 13 18 20 17 15 13
6 6 13 8 13 17 18 15 15 16 20 15 15 15 18 17 17 18 18 20 19 13 10 12 18 19 20 23 22 17 18 22 20 20 19 15 18 18 16 16 17 18 14 13 13
7 16 16 22 22 19 15 16 18 20 19 18 20 16 16 18 17 18 20 18 17 14 15 15 16 18 23 22 22 23 20 16 18 19 21 20 20 13 16 21 21 19 15 14 15
11 14 16 14 17 14 14 18 18 17 19 21 19 17 16 18 15 16 21 24 16 16 18 18 15 16 21 21 21 24 23 21 20 15 17 18 17 15 9 16 23 22 18 17 16
Wind_Direction
10 9 4 358 348 335 328 329 326 325 298 280 270 245 247 217 182 183 257 237 232 229 159 171 275 263 274 288 346 321 198 87 92 103 96 97 93 112 123 132 94 96 139 135 140
7 5 4 355 348 335 328 326 324 325 296 266 252 223 220 206 210 234 246 260 245 195 159 196 234 251 250 49 38 4 290 104 100 249 104 121 135 135 111 110 106 104 119 137 143
3 0 359 353 344 332 325 322 321 312 275 241 214 204 199 204 252 208 227 235 204 171 204 285 312 351 328 170 184 206 252 107 127 152 111 115 102 134 120 120 126 131 138 144 148
358 356 354 350 342 333 327 321 315 297 260 249 209 197 200 201 331 222 218 203 179 166 276 277 234 188 237 266 208 281 98 270 120 102 108 97 83 67 92 118 132 139 142 147 154
358 356 351 346 342 334 329 320 302 264 248 199 190 197 192 237 252 281 182 181 175 203 253 265 284 127 276 287 234 35 319 12 112 110 103 87 94 108 112 124 134 142 146 155 154
0 355 350 347 345 336 327 322 298 245 214 197 185 192 195 257 264 180 172 175 173 216 245 268 314 321 344 6 333 219 279 231 160 90 157 113 123 115 120 133 138 149 161 159 148
1 354 352 350 346 342 351 359 305 229 190 186 184 189 245 284 192 176 180 192 208 221 262 268 293 308 301 171 150 312 344 316 166 152 98 60 25 112 137 138 147 158 165 140 157
2 358 355 353 353 12 28 26 47 146 171 177 178 185 271 183 183 190 199 210 223 232 261 292 287 290 284 277 175 29 43 357 302 329 99 93 274 147 152 146 157 160 163 154 150
2 357 357 357 10 31 52 56 77 119 149 160 164 208 243 201 193 201 198 210 230 245 255 274 279 278 278 231 54 59 112 113 328 308 252 121 227 258 171 157 161 163 162 166 164
5 0 357 357 14 57 91 77 87 112 147 155 200 243 212 215 191 194 201 210 222 237 252 254 267 253 230 203 155 198 208 164 188 295 337 138 173 200 182 162 160 165 167 174 171
1 0 356 354 355 14 234 329 257 199 206 224 239 248 149 173 173 193 196 205 217 224 230 221 239 244 251 113 156 163 203 197 109 295 348 348 225 174 186 163 163 164 170 180 176
358 357 354 352 323 355 217 253 4 319 273 235 238 234 170 178 184 199 191 200 204 220 222 241 232 264 279 104 166 197 220 270 182 203 133 79 286 263 174 181 180 170 171 179 180
353 354 352 352 289 226 292 305 314 317 267 202 211 220 204 192 211 193 193 205 201 224 224 241 239 229 349 213 271 269 294 173 236 228 216 170 216 203 172 190 187 179 169 182 182
348 349 348 338 352 313 266 280 322 314 275 177 197 220 191 208 231 200 199 202 220 229 232 232 259 215 218 259 241 269 210 281 296 271 302 282 186 210 148 226 185 179 172 187 178
343 343 345 326 278 280 301 315 294 260 278 137 169 179 180 197 182 191 195 218 240 217 233 241 229 256 229 250 249 275 309 340 296 270 280 221 257 176 175 208 175 186 177 181 176
338 335 337 340 297 243 307 299 295 236 251 166 150 192 191 215 185 168 190 223 239 260 238 258 258 235 258 223 253 271 286 267 268 268 270 265 249 111 136 81 54 83 164 178 183
330 323 315 278 140 295 277 271 232 245 132 160 175 196 210 199 223 190 198 206 223 220 246 234 246 236 258 265 238 233 245 249 241 232 242 238 224 144 146 134 118 225 173 188 192
325 315 310 270 249 274 247 235 249 266 196 102 195 193 210 209 211 199 212 219 219 239 258 215 232 219 207 227 242 219 226 242 240 244 246 354 336 113 143 117 115 128 127 155 214
331 327 289 311 238 225 231 224 241 227 318 190 202 215 206 219 225 202 211 228 228 218 248 263 246 236 204 203 233 241 217 249 267 284 286 240 108 55 119 153 146 131 131 129 111
333 319 253 198 230 211 235 241 270 300 323 305 271 220 243 216 220 229 211 223 238 228 213 255 278 282 176 198 215 244 246 224 233 259 276 282 219 221 182 174 166 148 151 154 148
328 289 161 193 209 229 241 251 258 261 266 268 271 276 266 256 226 227 234 240 222 237 227 224 251 270 172 196 228 210 239 256 271 232 241 255 269 132 164 161 156 152 141 157 167
306 275 163 218 239 238 247 252 263 279 289 264 268 283 287 289 270 262 230 240 269 203 238 216 236 240 255 214 206 256 233 230 241 241 273 274 270 60 160 137 158 135 143 157 160
312 286 276 220 260 257 254 257 256 268 284 278 270 253 274 273 283 282 274 264 243 204 230 233 220 249 247 233 205 218 239 244 229 242 261 255 252 125 112 129 124 137 148 149 149
307 300 218 212 250 269 283 289 294 290 241 266 281 287 275 267 269 270 273 276 274 253 154 279 244 230 241 234 236 199 222 245 252 245 228 242 197 140 151 159 143 150 156 158 159
263 299 340 301 305 327 317 309 296 290 288 277 250 265 277 276 273 271 266 267 268 239 179 226 253 254 256 264 271 273 219 209 227 249 257 250 240 165 181 177 161 143 158 157 153
300 334 321 301 300 298 285 275 276 281 287 280 281 275 251 275 265 290 281 269 260 251 208 213 245 252 259 261 258 264 262 259 225 219 243 251 264 279 175 156 151 152 160 168 159
316 309 298 279 287 286 278 283 282 283 278 274 278 290 306 336 329 312 306 305 296 293 298 216 229 240 250 250 262 258 252 256 253 238 225 235 239 259 251 156 153 154 169 175 168
Height
1502 1501 1499 1498 1496 1495 1494 1494 1493 1492 1492 1492 1492 1492 1492 1492 1492 1492 1492 1491 1490 1491 1491 1492 1491 1489 1490 1484 1476 1470 1492 1470 1475 1472 1480 1480 1487 1491 1493 1495 1498 1502 1508 1517 1523
1503 1501 1499 1498 1496 1495 1494 1493 1493 1492 1492 1492 1492 1492 1491 1492 1491 1492 1491 1490 1489 1490 1490 1492 1491 1490 1489 1486 1493 1490 1479 1468 1466 1472 1472 1477 1481 1486 1493 1497 1502 1508 1514 1520 1523
1503 1501 1499 1498 1496 1495 1493 1493 1492 1492 1491 1492 1491 1491 1491 1491 1492 1490 1489 1490 1489 1490 1489 1490 1494 1494 1494 1486 1490 1486 1488 1460 1471 1468 1470 1475 1477 1486 1489 1498 1506 1512 1517 1521 1524
1504 1502 1500 1498 1496 1494 1493 1492 1492 1491 1491 1491 1491 1491 1491 1492 1488 1488 1488 1489 1490 1490 1491 1491 1493 1492 1490 1478 1475 1479 1466 1464 1465 1470 1477 1475 1481 1487 1490 1499 1508 1514 1518 1522 1524
1505 1502 1500 1498 1495 1493 1492 1491 1490 1490 1491 1491 1491 1492 1493 1493 1489 1487 1487 1489 1490 1491 1492 1488 1484 1485 1488 1480 1473 1478 1470 1467 1465 1470 1475 1478 1486 1491 1496 1503 1509 1515 1518 1521 1523
1505 1502 1500 1497 1495 1493 1491 1490 1490 1490 1491 1491 1491 1492 1493 1493 1487 1487 1488 1489 1490 1493 1492 1490 1484 1481 1478 1481 1479 1478 1481 1472 1470 1473 1476 1480 1489 1493 1500 1504 1510 1515 1517 1518 1522
1506 1503 1499 1496 1494 1492 1491 1490 1490 1490 1491 1491 1492 1492 1494 1492 1490 1487 1490 1491 1492 1494 1492 1490 1488 1484 1477 1487 1482 1480 1485 1484 1473 1474 1479 1485 1502 1499 1501 1504 1509 1513 1515 1517 1521
1506 1503 1499 1496 1494 1493 1492 1491 1490 1490 1491 1491 1492 1493 1490 1490 1490 1491 1492 1492 1493 1493 1493 1491 1490 1486 1478 1475 1481 1496 1492 1509 1485 1485 1475 1489 1524 1499 1502 1504 1508 1511 1514 1518 1521
1507 1502 1499 1496 1494 1494 1493 1492 1491 1491 1491 1492 1494 1494 1487 1487 1489 1490 1492 1492 1493 1493 1492 1491 1490 1485 1475 1474 1495 1508 1524 1517 1512 1491 1484 1485 1514 1499 1499 1501 1505 1509 1513 1517 1521
1507 1502 1499 1496 1495 1494 1493 1493 1492 1492 1492 1493 1494 1498 1488 1485 1486 1489 1491 1492 1492 1493 1492 1490 1487 1478 1469 1471 1523 1517 1525 1514 1524 1490 1484 1489 1493 1488 1492 1495 1501 1506 1512 1515 1520
1507 1503 1500 1497 1496 1495 1495 1493 1496 1495 1493 1484 1483 1481 1482 1483 1486 1488 1489 1491 1491 1491 1489 1485 1485 1480 1464 1462 1476 1482 1496 1498 1504 1495 1500 1507 1491 1483 1485 1488 1494 1501 1508 1513 1517
1507 1503 1500 1497 1496 1495 1494 1494 1492 1493 1487 1483 1481 1481 1481 1484 1485 1486 1488 1491 1489 1487 1485 1481 1486 1468 1460 1465 1473 1476 1478 1482 1481 1476 1498 1511 1508 1486 1480 1482 1488 1492 1501 1507 1513
1507 1504 1500 1497 1496 1495 1494 1494 1493 1492 1485 1474 1478 1480 1481 1483 1480 1481 1486 1485 1483 1484 1480 1480 1467 1466 1466 1471 1475 1469 1467 1483 1472 1464 1462 1486 1503 1477 1479 1483 1484 1485 1493 1500 1506
1506 1503 1500 1498 1498 1497 1495 1494 1493 1492 1486 1467 1473 1474 1477 1480 1478 1477 1482 1483 1477 1479 1476 1473 1464 1469 1474 1476 1471 1477 1460 1463 1469 1473 1482 1462 1510 1476 1486 1480 1479 1479 1487 1494 1500
1506 1502 1500 1498 1496 1496 1496 1494 1493 1493 1496 1465 1467 1467 1472 1476 1467 1473 1478 1480 1477 1475 1474 1473 1470 1471 1477 1474 1470 1473 1460 1465 1466 1471 1467 1461 1469 1455 1469 1470 1469 1472 1480 1487 1495
1505 1501 1499 1497 1496 1495 1495 1495 1494 1493 1486 1460 1462 1467 1468 1470 1469 1470 1476 1479 1477 1474 1470 1468 1462 1465 1467 1467 1469 1467 1469 1468 1470 1469 1488 1461 1462 1475 1468 1472 1466 1475 1478 1484 1490
1502 1499 1497 1496 1495 1496 1495 1495 1493 1491 1449 1455 1460 1461 1463 1467 1466 1468 1474 1476 1480 1489 1483 1469 1468 1464 1468 1474 1468 1471 1480 1498 1500 1492 1488 1447 1457 1451 1458 1468 1480 1478 1479 1482 1484
1500 1496 1494 1492 1493 1495 1496 1494 1498 1453 1445 1441 1449 1455 1463 1459 1462 1464 1470 1474 1471 1468 1470 1478 1483 1464 1462 1471 1472 1471 1474 1491 1508 1489 1470 1451 1471 1459 1454 1461 1469 1472 1478 1483 1483
1496 1493 1491 1490 1492 1494 1495 1490 1470 1454 1440 1440 1445 1454 1457 1453 1454 1458 1465 1465 1461 1464 1476 1469 1464 1442 1450 1460 1467 1468 1479 1464 1475 1461 1472 1456 1468 1465 1458 1469 1468 1475 1473 1479 1482
1494 1489 1487 1489 1491 1493 1490 1482 1459 1450 1449 1449 1456 1448 1454 1448 1452 1454 1456 1451 1455 1453 1457 1461 1473 1447 1445 1454 1460 1463 1456 1478 1474 1503 1503 1469 1460 1460 1465 1459 1462 1468 1474 1479 1483
1495 1490 1485 1488 1490 1490 1484 1471 1460 1453 1450 1457 1458 1454 1446 1446 1441 1446 1451 1445 1444 1447 1448 1454 1463 1459 1446 1457 1464 1465 1468 1462 1458 1463 1488 1490 1467 1430 1443 1449 1460 1466 1473 1479 1482
1497 1488 1484 1487 1488 1480 1475 1468 1465 1455 1453 1455 1458 1456 1451 1444 1441 1439 1442 1440 1437 1442 1449 1448 1456 1468 1454 1444 1449 1454 1456 1458 1473 1483 1464 1461 1462 1433 1437 1449 1457 1464 1474 1477 1479
1500 1489 1482 1484 1483 1472 1464 1459 1456 1454 1454 1456 1455 1454 1453 1452 1455 1441 1436 1431 1435 1437 1446 1444 1457 1472 1462 1448 1444 1453 1452 1448 1450 1456 1467 1475 1464 1439 1445 1450 1457 1466 1473 1478 1481
1503 1484 1476 1476 1477 1474 1469 1463 1458 1451 1453 1457 1457 1452 1451 1451 1447 1448 1443 1435 1434 1435 1441 1446 1446 1455 1463 1451 1437 1449 1450 1448 1450 1460 1462 1458 1454 1451 1452 1455 1460 1468 1474 1477 1481
1504 1489 1486 1479 1472 1471 1469 1463 1461 1458 1453 1453 1453 1456 1455 1457 1451 1448 1443 1440 1435 1436 1437 1445 1456 1448 1443 1437 1433 1432 1434 1441 1453 1452 1457 1446 1443 1445 1447 1451 1460 1468 1475 1479 1482
1506 1501 1496 1490 1483 1477 1473 1470 1469 1466 1462 1458 1457 1450 1453 1455 1453 1455 1446 1441 1438 1435 1436 1440 1454 1451 1451 1439 1436 1439 1431 1430 1433 1441 1445 1444 1443 1433 1438 1447 1458 1467 1475 1479 1482
1507 1504 1499 1491 1484 1477 1470 1466 1462 1461 1459 1457 1457 1454 1455 1456 1454 1455 1453 1448 1442 1441 1438 1437 1445 1454 1457 1447 1446 1447 1436 1432 1432 1428 1434 1447 1440 1435 1440 1445 1453 1464 1472 1477 1482